This is the latest recevied weather packets stored in our database for station/object SP1BMW-13. If no packets are shown the sender has not sent any weather packets the latest 10 day(s).
| Time | Temp. | Humidity | Pressure | Rain* | Wind** | Luminosity | Snow |
|---|---|---|---|---|---|---|---|
| 1778188017 | 7.78° C | 70% | 1017.9 hPa | 0 mm | 0 m/s | 0 W/m² | - |
| 1778187957 | 7.78° C | 70% | 1017.9 hPa | 0 mm | 1.34 m/s, 41° | 0 W/m² | - |
| 1778187897 | 7.78° C | 70% | 1017.8 hPa | 0 mm | 0.45 m/s, 322° | 0 W/m² | - |
| 1778187838 | 7.78° C | 70% | 1017.6 hPa | 0 mm | 0.45 m/s, 45° | 0 W/m² | - |
| 1778187777 | 7.78° C | 71% | 1017.9 hPa | 0 mm | 0.45 m/s, 45° | 0 W/m² | - |
| 1778187718 | 7.78° C | 71% | 1017.9 hPa | 0 mm | 0 m/s | 0 W/m² | - |
| 1778187657 | 7.78° C | 70% | 1018 hPa | 0 mm | 0 m/s | 0 W/m² | - |
| 1778187537 | 7.78° C | 70% | 1017.6 hPa | 0 mm | 0.45 m/s, 31° | 0 W/m² | - |
| 1778187477 | 7.78° C | 71% | 1017.6 hPa | 0 mm | 0.89 m/s, 58° | 0 W/m² | - |
| 1778187417 | 8.33° C | 71% | 1017.5 hPa | 0 mm | 0.45 m/s, 44° | 0 W/m² | - |
| 1778187357 | 8.33° C | 71% | 1017.6 hPa | 0 mm | 0 m/s | 0 W/m² | - |
| 1778187297 | 8.33° C | 70% | 1017.5 hPa | 0 mm | 0.45 m/s, 43° | 0 W/m² | - |
| 1778187237 | 7.78° C | 70% | 1017.8 hPa | 0 mm | 0 m/s | 0 W/m² | - |
| 1778187177 | 7.78° C | 70% | 1017.6 hPa | 0 mm | 0 m/s | 0 W/m² | - |
| 1778187117 | 7.78° C | 70% | 1017.5 hPa | 0 mm | 0.89 m/s, 38° | 0 W/m² | - |
| 1778187057 | 7.78° C | 71% | 1017.7 hPa | 0 mm | 0.45 m/s, 35° | 0 W/m² | - |
| 1778186997 | 7.78° C | 71% | 1017.5 hPa | 0 mm | 0.45 m/s, 43° | 0 W/m² | - |
| 1778186937 | 7.78° C | 71% | 1017.5 hPa | 0 mm | 0 m/s | 0 W/m² | - |
| 1778186878 | 7.78° C | 70% | 1017.6 hPa | 0 mm | 0.45 m/s, 47° | 0 W/m² | - |
| 1778186817 | 7.78° C | 71% | 1017.6 hPa | 0 mm | 0 m/s | 0 W/m² | - |
| 1778186757 | 7.78° C | 71% | 1017.5 hPa | 0 mm | 0.45 m/s, 41° | 0 W/m² | - |
| 1778186697 | 7.78° C | 71% | 1017.6 hPa | 0 mm | 0.89 m/s, 34° | 0 W/m² | - |
| 1778186637 | 7.78° C | 71% | 1017.7 hPa | 0 mm | 0.89 m/s, 49° | 0 W/m² | - |
| 1778186577 | 7.78° C | 71% | 1017.5 hPa | 0 mm | 0 m/s | 0 W/m² | - |
| 1778186517 | 7.78° C | 72% | 1017.4 hPa | 0 mm | 0 m/s | 0 W/m² | - |
* Rain latest hour (hover to see other rain measurements)
** Current wind speed in m/s (hover to see current wind gust speed)